Weather History for Scappoose, OR

Change the Weather History Date:

Wednesday, November 6, 2013

  Actual Average Record
Temperature  
Mean Temperature 50 °F -  
Max Temperature 52 °F - 64 °F (2006)
Min Temperature 48 °F - 28 °F (2003)
Degree Days  
Heating Degree Days 15    
Month to date heating degree days 100  
Since 1 July heating degree days 670  
Cooling Degree Days 0    
Month to date cooling degree days 0  
Year to date cooling degree days 396  
Moisture  
Dew Point 48 °F    
Average Humidity 88    
Maximum Humidity 93    
Minimum Humidity 83    
Precipitation  
Precipitation 0.38 in - 2.35 in (2006)
Month to date precipitation 1.31  
Year to date precipitation 23.82  
Sea Level Pressure  
Sea Level Pressure 30.23 in    
Wind  
Wind Speed 1 mph (SSE)    
Max Wind Speed 6 mph    
Max Gust Speed 9 mph    
Visibility 6 miles    
Events Rain    
T = Trace of Precipitation, MM = Missing Value Source: NWS Daily Summary

Daily Weather History Graph

Daily Weather History Graph

Search for Another Location

Airport:

Trip Planner

Search our weather history database for the weather conditions in past years. The results will help you decide how hot, cold, wet, or windy it might be!

Date:

Astronomy

Nov. 06, 2013 Rise Set
Actual Time 6:59 AM PST 4:50 PM PST
Civil Twilight 6:27 AM PST 5:22 PM PST
Nautical Twilight 5:52 AM PST 5:57 PM PST
Astronomical Twilight 5:17 AM PST 6:32 PM PST
Moon 10:23 AM PST (11/6) 7:57 PM PST (11/6)
Length of Visible Light 10h 54m
Length of Day
9h 51m
Waxing Crescent, 14% of the Moon is Illuminated
Nov 6
Waxing Crescent
Nov 9
First Quarter
Nov 17
Full
Nov 25
Last Quarter
Dec 2
New

Hourly Weather History & Observations

Time (PST) Temp. Dew Point Humidity Pressure Visibility Wind Dir Wind Speed Gust Speed Precip Events Conditions
12:53 AM 48.9 °F 46.9 °F 93% 30.26 in 5.0 mi Calm Calm - N/A   Overcast
1:35 AM 48.9 °F 46.9 °F 93% 30.26 in 6.0 mi Calm Calm - N/A   Overcast
1:53 AM 48.0 °F 46.9 °F 96% 30.26 in 6.0 mi Calm Calm - N/A   Overcast
2:02 AM 48.0 °F 46.9 °F 96% 30.26 in 6.0 mi Calm Calm - N/A   Overcast
2:53 AM 48.0 °F 46.9 °F 96% 30.26 in 5.0 mi Calm Calm - 0.00 in   Overcast
3:14 AM 48.0 °F 46.0 °F 93% 30.26 in 2.0 mi Calm Calm - N/A   Overcast
3:34 AM 48.0 °F 46.9 °F 96% 30.26 in 3.0 mi Calm Calm - N/A   Overcast
3:53 AM 48.9 °F 46.9 °F 93% 30.26 in 5.0 mi NNW 3.5 mph - N/A   Overcast
4:53 AM 48.0 °F 46.0 °F 93% 30.27 in 7.0 mi Calm Calm - N/A   Overcast
5:53 AM 48.9 °F 46.0 °F 90% 30.27 in 8.0 mi Calm Calm - N/A   Overcast
6:53 AM 48.0 °F 46.0 °F 93% 30.27 in 10.0 mi Calm Calm - N/A   Overcast
7:36 AM 48.9 °F 46.0 °F 90% 30.28 in 10.0 mi Calm Calm - N/A   Overcast
7:53 AM 48.9 °F 46.9 °F 93% 30.29 in 8.0 mi Calm Calm - N/A   Overcast
8:53 AM 50.0 °F 46.9 °F 89% 30.30 in 10.0 mi Calm Calm - N/A   Overcast
9:53 AM 51.1 °F 46.0 °F 83% 30.30 in 10.0 mi Calm Calm - N/A   Overcast
10:12 AM 51.1 °F 46.0 °F 83% 30.29 in 5.0 mi NNE 3.5 mph - 0.01 in Rain Light Rain
10:40 AM 51.1 °F 46.9 °F 86% 30.30 in 10.0 mi Calm Calm - 0.01 in   Overcast
10:53 AM 51.1 °F 46.9 °F 86% 30.30 in 10.0 mi Calm Calm - 0.01 in   Overcast
11:40 AM 51.1 °F 46.9 °F 86% 30.28 in 10.0 mi Calm Calm - 0.00 in Rain Light Rain
11:53 AM 51.1 °F 46.9 °F 86% 30.28 in 10.0 mi Calm Calm - 0.00 in   Overcast
12:53 PM 52.0 °F 48.0 °F 86% 30.26 in 10.0 mi Calm Calm - 0.00 in   Overcast
1:12 PM 52.0 °F 48.0 °F 86% 30.26 in 10.0 mi Calm Calm - 0.01 in Rain Light Rain
1:53 PM 52.0 °F 48.0 °F 86% 30.24 in 7.0 mi Calm Calm - 0.02 in Rain Light Rain
2:33 PM 51.1 °F 48.9 °F 92% 30.23 in 6.0 mi Calm Calm - 0.00 in   Overcast
2:51 PM 51.8 °F 48.2 °F 88% 30.23 in 5.0 mi Calm Calm - 0.00 in Rain Light Rain
2:53 PM 51.1 °F 48.9 °F 92% 30.23 in 5.0 mi Calm Calm - 0.00 in Rain Light Rain
3:53 PM 51.1 °F 48.9 °F 92% 30.22 in 3.0 mi East 3.5 mph - 0.04 in Rain Light Rain
4:05 PM 51.1 °F 48.9 °F 92% 30.21 in 2.5 mi Calm Calm - 0.01 in Rain Light Rain
4:25 PM 51.1 °F 48.9 °F 92% 30.20 in 3.0 mi Calm Calm - 0.02 in Rain Light Rain
4:32 PM 51.1 °F 48.9 °F 92% 30.20 in 3.0 mi Calm Calm - 0.03 in Rain Light Rain
4:53 PM 51.1 °F 48.9 °F 92% 30.20 in 4.0 mi Calm Calm - 0.05 in Rain Light Rain
5:53 PM 51.1 °F 48.9 °F 92% 30.18 in 3.0 mi Calm Calm - 0.02 in Rain Light Rain
6:21 PM 50.0 °F 48.9 °F 96% 30.18 in 2.5 mi Calm Calm - 0.02 in Rain Light Rain
6:45 PM 50.0 °F 48.9 °F 96% 30.17 in 3.0 mi Calm Calm - 0.03 in Rain Light Rain
6:53 PM 50.0 °F 48.9 °F 96% 30.17 in 3.0 mi Calm Calm - 0.03 in Rain Light Rain
7:34 PM 51.1 °F 48.9 °F 92% 30.16 in 4.0 mi Calm Calm - 0.00 in   Overcast
7:53 PM 51.1 °F 48.9 °F 92% 30.16 in 5.0 mi South 3.5 mph - 0.00 in Rain Light Rain
8:26 PM 51.1 °F 48.9 °F 92% 30.15 in 5.0 mi Calm Calm - 0.03 in Rain Light Rain
8:42 PM 51.1 °F 48.9 °F 92% 30.15 in 5.0 mi Calm Calm - 0.04 in Rain Light Rain
8:53 PM 51.1 °F 48.9 °F 92% 30.16 in 4.0 mi Calm Calm - 0.06 in Rain Light Rain
9:53 PM 51.1 °F 48.9 °F 92% 30.14 in 4.0 mi South 3.5 mph - 0.07 in Rain Light Rain
10:53 PM 51.1 °F 48.0 °F 89% 30.12 in 8.0 mi South 4.6 mph - 0.05 in Rain Light Rain
11:45 PM 51.1 °F 48.9 °F 92% 30.09 in 7.0 mi SSE 3.5 mph - 0.03 in Rain Light Rain
11:53 PM 51.1 °F 48.0 °F 89% 30.09 in 5.0 mi South 3.5 mph - 0.03 in Rain Light Rain